TimeEST,TemperatureF,Dew PointF,Humidity,Sea Level PressureIn,VisibilityMPH,Wind Direction,Wind SpeedMPH,Gust SpeedMPH,PrecipitationIn,Events,Conditions,WindDirDegrees,DateUTC
12:15 AM,44.6,42.8,93,30.27,10.0,SW,4.6,-,N/A,,Clear,230,2012-12-03 05:15:00
12:35 AM,48.2,48.2,100,30.27,10.0,WSW,3.5,-,N/A,,Clear,240,2012-12-03 05:35:00
12:55 AM,44.6,42.8,93,30.27,10.0,Calm,Calm,-,N/A,,Clear,0,2012-12-03 05:55:00
1:15 AM,42.8,42.8,100,30.27,7.0,Calm,Calm,-,N/A,,Clear,0,2012-12-03 06:15:00
1:35 AM,42.8,41.0,93,30.27,7.0,Calm,Calm,-,N/A,,Clear,0,2012-12-03 06:35:00
1:55 AM,42.8,42.8,100,30.28,10.0,Calm,Calm,-,N/A,,Scattered Clouds,0,2012-12-03 06:55:00
2:15 AM,42.8,42.8,100,30.27,10.0,Calm,Calm,-,N/A,,Clear,0,2012-12-03 07:15:00
2:35 AM,42.8,42.8,100,30.28,7.0,Calm,Calm,-,N/A,,Clear,0,2012-12-03 07:35:00
2:55 AM,42.8,42.8,100,30.28,10.0,Calm,Calm,-,N/A,,Mostly Cloudy,0,2012-12-03 07:55:00
3:15 AM,42.8,42.8,100,30.28,10.0,Calm,Calm,-,N/A,,Overcast,0,2012-12-03 08:15:00
3:35 AM,42.8,42.8,100,30.28,10.0,Calm,Calm,-,N/A,,Overcast,0,2012-12-03 08:35:00
3:55 AM,44.6,42.8,93,30.28,10.0,Calm,Calm,-,N/A,,Overcast,0,2012-12-03 08:55:00
4:15 AM,42.8,42.8,100,30.28,10.0,Calm,Calm,-,N/A,,Mostly Cloudy,0,2012-12-03 09:15:00
4:35 AM,44.6,44.6,100,30.28,7.0,Calm,Calm,-,N/A,,Overcast,0,2012-12-03 09:35:00
4:55 AM,44.6,44.6,100,30.28,7.0,Calm,Calm,-,N/A,,Mostly Cloudy,0,2012-12-03 09:55:00
5:15 AM,44.6,42.8,93,30.27,10.0,Calm,Calm,-,N/A,,Mostly Cloudy,0,2012-12-03 10:15:00
5:35 AM,42.8,42.8,100,30.27,5.0,Calm,Calm,-,N/A,,Mostly Cloudy,0,2012-12-03 10:35:00
5:55 AM,42.8,42.8,100,30.28,10.0,Calm,Calm,-,N/A,,Scattered Clouds,0,2012-12-03 10:55:00
6:15 AM,42.8,42.8,100,30.28,10.0,Calm,Calm,-,N/A,,Clear,0,2012-12-03 11:15:00
6:35 AM,42.8,42.8,100,30.29,4.0,Calm,Calm,-,N/A,,Clear,0,2012-12-03 11:35:00
6:55 AM,42.8,42.8,100,30.29,10.0,Calm,Calm,-,N/A,,Scattered Clouds,0,2012-12-03 11:55:00
7:15 AM,42.8,41.0,93,30.30,10.0,Calm,Calm,-,N/A,,Scattered Clouds,0,2012-12-03 12:15:00
7:35 AM,42.8,42.8,100,30.30,7.0,Calm,Calm,-,N/A,,Mostly Cloudy,0,2012-12-03 12:35:00
7:55 AM,42.8,42.8,100,30.30,7.0,Calm,Calm,-,N/A,,Mostly Cloudy,0,2012-12-03 12:55:00
8:15 AM,42.8,42.8,100,30.30,10.0,Calm,Calm,-,N/A,,Mostly Cloudy,0,2012-12-03 13:15:00
8:35 AM,48.2,48.2,100,30.30,10.0,Calm,Calm,-,N/A,,Mostly Cloudy,0,2012-12-03 13:35:00
8:55 AM,51.8,50.0,94,30.31,10.0,Calm,Calm,-,N/A,,Overcast,0,2012-12-03 13:55:00
9:15 AM,51.8,50.0,94,30.31,10.0,Calm,Calm,-,N/A,,Mostly Cloudy,0,2012-12-03 14:15:00
9:35 AM,55.4,50.0,82,30.31,10.0,Calm,Calm,-,N/A,,Scattered Clouds,0,2012-12-03 14:35:00
9:55 AM,57.2,50.0,77,30.31,10.0,Calm,Calm,-,N/A,,Scattered Clouds,0,2012-12-03 14:55:00
10:15 AM,60.8,50.0,68,30.32,10.0,Calm,Calm,-,N/A,,Clear,0,2012-12-03 15:15:00
10:35 AM,64.4,48.2,56,30.31,10.0,WSW,5.8,-,N/A,,Clear,240,2012-12-03 15:35:00
10:55 AM,66.2,46.4,49,30.31,10.0,WSW,6.9,-,N/A,,Clear,240,2012-12-03 15:55:00
11:15 AM,68.0,46.4,46,30.30,10.0,SW,8.1,-,N/A,,Clear,220,2012-12-03 16:15:00
11:35 AM,69.8,44.6,40,30.29,10.0,WSW,10.4,-,N/A,,Clear,240,2012-12-03 16:35:00
11:55 AM,69.8,44.6,40,30.28,10.0,WSW,4.6,-,N/A,,Clear,240,2012-12-03 16:55:00
12:15 PM,71.6,44.6,38,30.27,10.0,West,3.5,-,N/A,,Clear,260,2012-12-03 17:15:00
12:35 PM,69.8,44.6,40,30.26,10.0,WSW,4.6,-,N/A,,Clear,240,2012-12-03 17:35:00
12:55 PM,71.6,44.6,38,30.26,10.0,WSW,6.9,-,N/A,,Clear,240,2012-12-03 17:55:00
1:15 PM,71.6,44.6,38,30.25,10.0,WSW,8.1,-,N/A,,Clear,250,2012-12-03 18:15:00
1:35 PM,71.6,44.6,38,30.25,10.0,WSW,5.8,-,N/A,,Clear,240,2012-12-03 18:35:00
1:55 PM,73.4,44.6,36,30.24,10.0,WSW,4.6,-,N/A,,Clear,250,2012-12-03 18:55:00
2:15 PM,71.6,44.6,38,30.24,10.0,SW,5.8,-,N/A,,Clear,230,2012-12-03 19:15:00
2:35 PM,71.6,44.6,38,30.23,10.0,SW,6.9,-,N/A,,Clear,230,2012-12-03 19:35:00
2:55 PM,71.6,44.6,38,30.24,10.0,WSW,8.1,-,N/A,,Clear,240,2012-12-03 19:55:00
3:15 PM,71.6,44.6,38,30.23,10.0,WSW,4.6,-,N/A,,Clear,240,2012-12-03 20:15:00
3:35 PM,71.6,44.6,38,30.23,10.0,WSW,4.6,-,N/A,,Clear,240,2012-12-03 20:35:00
3:55 PM,71.6,46.4,41,30.23,10.0,SW,4.6,-,N/A,,Clear,230,2012-12-03 20:55:00
4:15 PM,69.8,46.4,43,30.23,10.0,Calm,Calm,-,N/A,,Clear,0,2012-12-03 21:15:00
4:35 PM,69.8,46.4,43,30.24,10.0,SSW,5.8,-,N/A,,Clear,210,2012-12-03 21:35:00
4:55 PM,68.0,46.4,46,30.24,10.0,WSW,3.5,-,N/A,,Clear,240,2012-12-03 21:55:00
5:15 PM,68.0,46.4,46,30.24,10.0,Calm,Calm,-,N/A,,Clear,0,2012-12-03 22:15:00
5:35 PM,66.2,46.4,49,30.24,10.0,Calm,Calm,-,N/A,,Clear,0,2012-12-03 22:35:00
5:55 PM,64.4,46.4,52,30.25,10.0,Calm,Calm,-,N/A,,Clear,0,2012-12-03 22:55:00
6:15 PM,59.0,46.4,63,30.25,10.0,Calm,Calm,-,N/A,,Clear,0,2012-12-03 23:15:00
6:35 PM,55.4,46.4,72,30.25,10.0,Calm,Calm,-,N/A,,Clear,0,2012-12-03 23:35:00
6:55 PM,55.4,46.4,72,30.26,10.0,Calm,Calm,-,N/A,,Clear,0,2012-12-03 23:55:00
7:15 PM,55.4,46.4,72,30.26,10.0,Calm,Calm,-,N/A,,Clear,0,2012-12-04 00:15:00
7:35 PM,51.8,46.4,82,30.26,10.0,Calm,Calm,-,N/A,,Clear,0,2012-12-04 00:35:00
7:55 PM,51.8,44.6,76,30.26,10.0,Calm,Calm,-,N/A,,Clear,0,2012-12-04 00:55:00
8:15 PM,50.0,46.4,87,30.26,10.0,Calm,Calm,-,N/A,,Clear,0,2012-12-04 01:15:00
8:35 PM,50.0,46.4,87,30.26,10.0,Calm,Calm,-,N/A,,Clear,0,2012-12-04 01:35:00
8:55 PM,50.0,46.4,87,30.26,10.0,Calm,Calm,-,N/A,,Clear,0,2012-12-04 01:55:00
9:15 PM,48.2,44.6,87,30.27,10.0,Calm,Calm,-,N/A,,Clear,0,2012-12-04 02:15:00
9:35 PM,46.4,42.8,87,30.27,10.0,Calm,Calm,-,N/A,,Clear,0,2012-12-04 02:35:00
9:55 PM,46.4,44.6,93,30.28,10.0,Calm,Calm,-,N/A,,Clear,0,2012-12-04 02:55:00
10:15 PM,44.6,44.6,100,30.28,10.0,Calm,Calm,-,N/A,,Clear,0,2012-12-04 03:15:00
10:35 PM,44.6,42.8,93,30.28,10.0,Calm,Calm,-,N/A,,Clear,0,2012-12-04 03:35:00
10:55 PM,44.6,42.8,93,30.27,10.0,Calm,Calm,-,N/A,,Clear,0,2012-12-04 03:55:00
11:15 PM,44.6,42.8,93,30.28,10.0,Calm,Calm,-,N/A,,Clear,0,2012-12-04 04:15:00
11:35 PM,42.8,41.0,93,30.27,10.0,Calm,Calm,-,N/A,,Clear,0,2012-12-04 04:35:00
11:55 PM,42.8,41.0,93,30.28,10.0,Calm,Calm,-,N/A,,Clear,0,2012-12-04 04:55:00